N3FKZ Weather Reports


Display with metric or nautical units.
time (UTC)temp
F
wind
direction
speed
MPH
gust
MPH
rain 1hr
in
rain 24hr
in
rain mn
in
humidity
%
barometer
mb
20210921175024 81 13 7.0 12.0 0.00 0.02 0.00 57 1019.6
20210921174524 81 27 6.0 13.0 0.00 0.02 0.00 56 1019.5
20210921173527 82 339 2.0 12.0 0.00 0.02 0.00 57 1019.6
20210921173024 83 310 6.0 11.0 0.00 0.02 0.00 57 1019.6
20210921172527 82 335 7.0 10.0 0.00 0.02 0.00 59 1019.5
20210921172024 81 355 3.0 10.0 0.00 0.02 0.00 59 1019.6
20210921171524 81 16 7.0 14.0 0.00 0.02 0.00 61 1019.6
20210921171027 80 46 8.0 15.0 0.00 0.02 0.00 59 1019.7
20210921170524 80 315 6.0 15.0 0.00 0.02 0.00 57 1019.7
20210921165524 81 22 6.0 14.0 0.00 0.02 0.00 57 1019.7
20210921165024 82 295 1.0 6.0 0.00 0.02 0.00 58 1019.8
20210921164524 81 244 1.0 10.0 0.00 0.02 0.00 60 1019.7
20210921164027 81 0 7.0 9.0 0.00 0.02 0.00 59 1019.6
20210921163527 81 41 2.0 12.0 0.00 0.02 0.00 60 1019.7
20210921163024 80 323 1.0 8.0 0.00 0.02 0.00 62 1019.6
20210921162524 80 345 1.0 10.0 0.00 0.02 0.00 62 1019.6
20210921162024 79 11 2.0 11.0 0.00 0.02 0.00 62 1019.6
20210921161524 79 61 8.0 13.0 0.00 0.02 0.00 60 1019.6
20210921161024 79 5 10.0 15.0 0.00 0.02 0.00 63 1019.7
20210921160524 78 264 2.0 9.0 0.00 0.02 0.00 64 1019.5
20210921160024 78 5 2.0 11.0 0.00 0.02 0.00 63 1019.4
20210921155527 77 355 9.0 11.0 0.00 0.02 0.00 66 1019.4
20210921155024 76 0 8.0 10.0 0.00 0.02 0.00 65 1019.2
20210921154527 76 0 10.0 13.0 0.00 0.02 0.00 64 1019.2
20210921154024 76 317 8.0 11.0 0.00 0.02 0.00 65 1019.2
20210921153524 75 337 6.0 14.0 0.00 0.02 0.00 65 1019.0
20210921153027 75 9 7.0 13.0 0.00 0.02 0.00 66 1019.0
20210921152530 74 355 8.0 13.0 0.00 0.02 0.00 67 1018.9
20210921152024 74 23 3.0 12.0 0.00 0.02 0.00 70 1019.0
20210921151524 73 347 6.0 13.0 0.00 0.02 0.00 71 1018.8
20210921151027 72 20 5.0 12.0 0.00 0.02 0.00 72 1018.8
20210921150524 72 10 4.0 12.0 0.00 0.02 0.00 72 1018.8
20210921150024 72 341 3.0 9.0 0.00 0.02 0.00 72 1018.8
20210921145524 72 11 0.0 14.0 0.00 0.02 0.00 70 1018.7
20210921145027 73 292 2.0 11.0 0.00 0.02 0.00 68 1018.6
20210921144524 74 5 2.0 19.0 0.00 0.02 0.00 68 1018.5
20210921144024 75 9 10.0 15.0 0.00 0.02 0.00 64 1018.2
20210921143524 75 347 5.0 11.0 0.00 0.02 0.00 65 1018.0
20210921143027 75 302 9.0 14.0 0.00 0.02 0.00 65 1017.9
20210921142524 75 38 5.0 13.0 0.00 0.02 0.00 65 1017.8
20210921142024 75 355 7.0 13.0 0.00 0.02 0.00 65 1017.7
20210921141527 74 14 6.0 16.0 0.00 0.02 0.00 67 1017.7
20210921141027 74 144 2.0 14.0 0.00 0.02 0.00 68 1017.6
20210921140527 73 343 4.0 11.0 0.00 0.02 0.00 68 1017.5
20210921140024 74 5 7.0 13.0 0.00 0.02 0.00 68 1017.4
20210921135524 74 5 6.0 11.0 0.00 0.02 0.00 69 1017.3
20210921135024 73 355 6.0 13.0 0.00 0.02 0.00 69 1017.3
20210921134524 74 34 12.0 14.0 0.00 0.02 0.00 70 1017.2
20210921134027 74 21 9.0 13.0 0.00 0.02 0.00 71 1017.3
20210921133530 74 355 7.0 12.0 0.00 0.02 0.00 72 1017.3
20210921133030 74 21 2.0 6.0 0.00 0.02 0.00 75 1017.1
20210921132530 74 5 2.0 6.0 0.00 0.02 0.00 75 1017.1
20210921132024 74 355 6.0 11.0 0.00 0.02 0.00 74 1016.9
20210921131524 74 30 4.0 11.0 0.00 0.02 0.00 75 1016.9
20210921131024 73 307 3.0 8.0 0.00 0.02 0.00 79 1016.7
20210921130524 73 332 6.0 11.0 0.00 0.02 0.00 82 1016.7
20210921130024 73 31 6.0 9.0 0.00 0.02 0.00 86 1016.5
20210921125524 73 23 4.0 7.0 0.00 0.02 0.00 88 1016.4
20210921125024 73 5 3.0 7.0 0.00 0.02 0.00 89 1016.1
20210921124524 73 323 3.0 8.0 0.00 0.02 0.00 90 1015.8
20210921124024 73 0 1.0 5.0 0.00 0.02 0.00 91 1015.7
20210921123527 73 5 0.0 4.0 0.00 0.02 0.00 91 1015.6
20210921123024 73 137 0.0 0.0 0.00 0.02 0.00 91 1015.4
20210921122524 73 137 0.0 0.0 0.00 0.02 0.00 91 1015.3
20210921122027 74 137 0.0 0.0 0.00 0.02 0.00 90 1015.1
20210921121527 74 137 0.0 1.0 0.01 0.02 0.00 90 1015.0
20210921121027 74 137 0.0 0.0 0.01 0.02 0.00 89 1014.9
20210921120530 74 137 0.0 1.0 0.01 0.02 0.00 89 1014.9
20210921115527 74 138 2.0 4.0 0.01 0.02 0.00 89 1014.5
20210921115024 74 132 3.0 3.0 0.01 0.02 0.00 89 1014.5
20210921114524 74 325 1.0 2.0 0.01 0.02 0.00 89 1014.4
20210921113524 74 325 1.0 2.0 0.01 0.02 0.00 88 1014.4
20210921113024 74 319 1.0 2.0 0.01 0.02 0.00 88 1014.4
20210921112524 75 319 0.0 0.0 0.01 0.02 0.00 88 1014.4
20210921112024 75 319 0.0 2.0 0.01 0.02 0.00 88 1014.4
20210921111524 75 169 0.0 1.0 0.00 0.01 0.00 86 1014.2
20210921110524 75 169 1.0 2.0 0.00 0.01 0.00 87 1014.0
20210921105524 75 169 0.0 0.0 0.01 0.01 0.00 87 1013.8
20210921105027 75 169 0.0 0.0 0.01 0.01 0.00 87 1013.7
20210921104530 75 169 0.0 0.0 0.01 0.01 0.00 87 1013.6
20210921103524 75 169 0.0 0.0 0.01 0.01 0.00 86 1013.6
20210921103027 76 169 0.0 0.0 0.01 0.01 0.00 86 1013.6
20210921102524 76 169 0.0 0.0 0.01 0.01 0.00 85 1013.4
20210921102030 76 169 0.0 1.0 0.01 0.01 0.00 83 1013.3
20210921101527 77 169 0.0 0.0 0.01 0.01 0.00 82 1013.2
20210921101024 77 169 0.0 0.0 0.01 0.01 0.00 81 1013.1
20210921100524 78 169 0.0 0.0 0.01 0.01 0.00 80 1013.1
20210921095524 78 169 0.0 1.0 0.00 0.00 0.00 77 1013.0
20210921095024 78 169 0.0 1.0 0.00 0.00 0.00 76 1013.0
20210921094524 79 169 0.0 0.0 0.00 0.00 0.00 76 1012.9
20210921093524 79 169 0.0 1.0 0.00 0.00 0.00 75 1012.8
20210921093024 79 169 1.0 4.0 0.00 0.00 0.00 75 1012.5
20210921092524 79 182 2.0 6.0 0.00 0.00 0.00 75 1012.4
20210921092024 79 158 4.0 4.0 0.00 0.00 0.00 75 1012.4
20210921091524 79 171 2.0 4.0 0.00 0.00 0.00 74 1012.6
20210921091024 79 171 1.0 3.0 0.00 0.00 0.00 74 1012.5
20210921090527 80 173 2.0 2.0 0.00 0.00 0.00 74 1012.6
20210921090024 80 173 0.0 3.0 0.00 0.00 0.00 74 1012.5
20210921085524 80 186 2.0 3.0 0.00 0.00 0.00 74 1012.5
20210921085024 80 186 2.0 5.0 0.00 0.00 0.00 74 1012.4
20210921084527 80 167 4.0 5.0 0.00 0.00 0.00 74 1012.3
20210921084024 80 184 3.0 5.0 0.00 0.00 0.00 73 1012.4
20210921083524 80 167 2.0 7.0 0.00 0.00 0.00 73 1012.3
20210921083024 80 194 2.0 5.0 0.00 0.00 0.00 73 1012.3
20210921082524 80 182 2.0 5.0 0.00 0.00 0.00 73 1012.2
20210921082024 80 199 3.0 6.0 0.00 0.00 0.00 73 1012.3
20210921081527 80 176 2.0 5.0 0.00 0.00 0.00 73 1012.3
20210921081024 80 181 3.0 5.0 0.00 0.00 0.00 73 1012.3
20210921080524 80 189 2.0 5.0 0.00 0.00 0.00 72 1012.2
20210921080024 80 175 3.0 6.0 0.00 0.00 0.00 72 1012.2
20210921075527 80 171 4.0 5.0 0.00 0.00 0.00 72 1012.2
20210921075024 80 188 2.0 6.0 0.00 0.00 0.00 72 1012.1
20210921074527 80 184 3.0 6.0 0.00 0.00 0.00 72 1012.2
20210921074024 81 162 4.0 5.0 0.00 0.00 0.00 71 1012.1
20210921073527 81 155 2.0 5.0 0.00 0.00 0.00 71 1012.1
20210921073024 81 186 4.0 5.0 0.00 0.00 0.00 71 1012.1
20210921072524 81 172 3.0 7.0 0.00 0.00 0.00 71 1012.0
20210921072024 81 178 3.0 6.0 0.00 0.00 0.00 70 1011.9
20210921071524 81 171 4.0 6.0 0.00 0.00 0.00 70 1011.8
20210921071024 81 165 4.0 6.0 0.00 0.00 0.00 70 1011.8
20210921070527 81 149 5.0 10.0 0.00 0.00 0.00 70 1011.8
20210921070024 81 187 9.0 9.0 0.00 0.00 0.00 70 1011.7
20210921065524 82 146 4.0 6.0 0.00 0.00 0.00 70 1011.7
20210921065024 82 160 4.0 9.0 0.00 0.00 0.00 69 1011.8
20210921064524 82 188 4.0 9.0 0.00 0.00 0.00 69 1011.7
20210921064024 82 177 3.0 7.0 0.00 0.00 0.00 69 1011.7
20210921063524 82 159 3.0 10.0 0.00 0.00 0.00 69 1011.6
20210921063027 82 141 6.0 10.0 0.00 0.00 0.00 69 1011.6
20210921062524 82 168 9.0 9.0 0.00 0.00 0.00 68 1011.6
20210921062024 82 176 4.0 11.0 0.00 0.00 0.00 68 1011.7
20210921061524 83 174 3.0 7.0 0.00 0.00 0.00 68 1011.6
20210921061024 83 198 3.0 10.0 0.00 0.00 0.00 68 1011.6
20210921060524 83 180 5.0 10.0 0.00 0.00 0.00 68 1011.6
20210921060024 83 173 7.0 7.0 0.00 0.00 0.00 68 1011.6
20210921055524 83 182 3.0 12.0 0.00 0.00 0.00 68 1011.6
20210921055024 83 202 5.0 9.0 0.00 0.00 0.00 67 1011.6
20210921054527 83 160 5.0 11.0 0.00 0.00 0.00 67 1011.6
20210921054027 83 176 4.0 6.0 0.00 0.00 0.00 67 1011.7
20210921053527 83 191 4.0 8.0 0.00 0.00 0.00 67 1011.6
20210921053024 83 170 3.0 7.0 0.00 0.00 0.00 67 1011.6
20210921052524 83 183 3.0 10.0 0.00 0.00 0.00 67 1011.6
20210921052024 83 161 3.0 9.0 0.00 0.00 0.00 67 1011.5
20210921051524 84 169 3.0 10.0 0.00 0.00 0.00 66 1011.6
20210921051024 84 171 2.0 10.0 0.00 0.00 0.00 66 1011.5
20210921050524 84 158 5.0 9.0 0.00 0.00 0.00 66 1011.4
20210921050024 84 146 4.0 9.0 0.00 0.00 0.00 66 1011.4
20210921045527 84 184 5.0 10.0 0.00 0.00 0.00 66 1011.4
20210921045027 84 165 3.0 8.0 0.00 0.00 0.00 66 1011.4
20210921044524 84 166 5.0 9.0 0.00 0.00 0.00 66 1011.3
20210921044024 84 162 4.0 8.0 0.00 0.00 0.00 66 1011.2
20210921043527 84 144 4.0 13.0 0.00 0.00 0.00 66 1011.2
20210921043024 84 181 3.0 9.0 0.00 0.00 0.00 66 1011.2
20210921042524 84 148 5.0 9.0 0.00 0.00 0.00 66 1011.0
20210921042027 84 203 6.0 9.0 0.00 0.00 0.00 66 1010.8
20210921041527 84 167 5.0 10.0 0.00 0.00 0.00 66 1010.8
20210921041024 84 184 5.0 10.0 0.00 0.00 0.00 66 1010.8
20210921040524 84 188 8.0 13.0 0.00 0.00 0.00 66 1010.8
20210921040027 85 134 6.0 10.0 0.00 0.00 0.00 66 1010.7
20210921035527 85 167 2.0 12.0 0.00 0.00 0.00 66 1010.8
20210921035024 84 184 5.0 11.0 0.00 0.00 0.00 66 1010.9
20210921034524 85 175 4.0 8.0 0.00 0.00 0.00 66 1011.0
20210921034030 85 141 5.0 8.0 0.00 0.00 0.00 66 1010.9
20210921033527 85 168 3.0 6.0 0.00 0.00 0.00 65 1011.1
20210921033024 85 165 4.0 7.0 0.00 0.00 0.00 65 1011.1
20210921032524 85 161 3.0 6.0 0.00 0.00 0.00 64 1011.1
20210921032030 85 173 4.0 6.0 0.00 0.00 0.00 64 1010.9
20210921031524 85 187 3.0 7.0 0.00 0.00 0.00 63 1010.9
20210921031024 85 177 4.0 10.0 0.00 0.00 0.00 63 1010.8
20210921030524 85 186 3.0 6.0 0.00 0.00 0.00 63 1010.7
20210921030024 86 161 3.0 7.0 0.00 0.00 0.00 62 1010.6
20210921025524 86 141 4.0 8.0 0.00 0.00 0.00 61 1010.7
20210921025024 86 176 6.0 11.0 0.00 0.00 0.00 61 1010.7
20210921024524 87 165 2.0 7.0 0.00 0.00 0.00 60 1010.6
20210921024024 87 138 5.0 7.0 0.00 0.00 0.00 60 1010.6
20210921023524 87 150 9.0 10.0 0.00 0.00 0.00 60 1010.5
20210921023024 87 136 5.0 9.0 0.00 0.00 0.00 60 1010.5
20210921022527 87 156 2.0 6.0 0.00 0.00 0.00 59 1010.4
20210921022024 87 161 4.0 9.0 0.00 0.00 0.00 59 1010.4
20210921021524 87 160 5.0 7.0 0.00 0.00 0.00 59 1010.3
20210921021024 87 169 3.0 6.0 0.00 0.00 0.00 59 1010.2
20210921020524 87 152 5.0 9.0 0.00 0.00 0.00 59 1010.1
20210921020024 87 152 3.0 9.0 0.00 0.00 0.00 60 1010.0
20210921015524 87 132 3.0 9.0 0.00 0.00 0.00 60 1010.1
20210921015024 87 163 4.0 6.0 0.00 0.00 0.00 60 1010.0
20210921014524 87 147 3.0 6.0 0.00 0.00 0.00 60 1009.8
20210921014024 87 150 2.0 7.0 0.00 0.00 0.00 59 1009.7
20210921013530 87 140 4.0 6.0 0.00 0.00 0.00 59 1009.7
20210921013024 87 155 3.0 6.0 0.00 0.00 0.00 59 1009.6
20210921012527 87 184 1.0 6.0 0.00 0.00 0.00 58 1009.6
20210921012024 89 142 2.0 5.0 0.00 0.00 0.00 60 1009.6
20210921011527 89 150 4.0 4.0 0.00 0.00 0.00 52 1009.4
20210921011024 89 171 1.0 3.0 0.00 0.00 0.00 51 1009.2
20210921010524 90 171 2.0 4.0 0.00 0.00 0.00 51 1009.2
20210921010024 90 182 2.0 7.0 0.00 0.00 0.00 51 1009.1
20210921005524 90 169 2.0 6.0 0.00 0.00 0.00 50 1009.0
20210921005024 91 167 3.0 5.0 0.00 0.00 0.00 50 1009.0
20210921004524 91 184 2.0 8.0 0.00 0.00 0.00 49 1008.9
20210921004024 91 163 7.0 7.0 0.00 0.00 0.00 49 1008.9
20210921003524 92 155 2.0 6.0 0.00 0.00 0.00 48 1008.8
20210921003024 92 173 6.0 7.0 0.00 0.00 0.00 48 1008.8
20210921002524 92 146 5.0 7.0 0.00 0.00 0.00 48 1008.8
20210921002027 92 131 5.0 10.0 0.00 0.00 0.00 47 1008.6
20210921001524 93 170 3.0 10.0 0.00 0.00 0.00 47 1008.5
20210921001024 93 155 5.0 11.0 0.00 0.00 0.00 46 1008.5
20210921000524 93 178 5.0 12.0 0.00 0.00 0.00 46 1008.4
20210921000024 93 198 5.0 10.0 0.00 0.00 0.00 46 1008.4
20210920235524 93 163 5.0 11.0 0.00 0.00 0.00 46 1008.4
20210920235027 94 126 4.0 11.0 0.00 0.00 0.00 46 1008.4
20210920234527 94 119 6.0 10.0 0.00 0.00 0.00 46 1008.4
20210920234024 94 183 3.0 12.0 0.00 0.00 0.00 45 1008.4
20210920233524 95 161 5.0 10.0 0.00 0.00 0.00 45 1008.4
20210920233024 95 173 10.0 13.0 0.00 0.00 0.00 44 1008.3
20210920232524 95 148 7.0 11.0 0.00 0.00 0.00 43 1008.2
20210920232027 96 160 7.0 11.0 0.00 0.00 0.00 44 1008.3
20210920231524 96 164 11.0 12.0 0.00 0.00 0.00 43 1008.3
20210920231024 96 166 5.0 12.0 0.00 0.00 0.00 43 1008.3
20210920230524 96 171 9.0 12.0 0.00 0.00 0.00 43 1008.2
20210920230024 96 170 6.0 13.0 0.00 0.00 0.00 44 1008.2
20210920225524 96 136 6.0 12.0 0.00 0.00 0.00 44 1008.4
20210920225024 97 140 5.0 11.0 0.00 0.00 0.00 43 1008.3
20210920224524 97 183 5.0 12.0 0.00 0.00 0.00 44 1008.2
20210920224027 97 155 13.0 15.0 0.00 0.00 0.00 44 1008.1
20210920223524 97 188 7.0 12.0 0.00 0.00 0.00 44 1008.1
20210920223024 97 138 6.0 13.0 0.00 0.00 0.00 44 1008.1
20210920222524 96 159 4.0 10.0 0.00 0.00 0.00 45 1008.2
20210920222024 96 149 4.0 14.0 0.00 0.00 0.00 44 1008.2
20210920221524 96 144 7.0 10.0 0.00 0.00 0.00 44 1008.0
20210920221027 97 146 4.0 14.0 0.00 0.00 0.00 43 1007.9
20210920220530 97 145 7.0 12.0 0.00 0.00 0.00 43 1008.0
20210920220024 97 161 5.0 10.0 0.00 0.00 0.00 44 1008.0
20210920215524 96 205 6.0 11.0 0.00 0.00 0.00 44 1008.1
20210920215024 96 187 3.0 11.0 0.00 0.00 0.00 44 1008.2
20210920214524 96 180 2.0 6.0 0.00 0.00 0.00 45 1008.3
20210920214024 97 169 5.0 11.0 0.00 0.00 0.00 44 1008.4
20210920213527 97 163 4.0 10.0 0.00 0.00 0.00 45 1008.4
20210920213024 97 200 2.0 7.0 0.00 0.00 0.00 44 1008.3
20210920212524 97 204 2.0 10.0 0.00 0.00 0.00 45 1008.3
20210920212024 97 202 3.0 10.0 0.00 0.00 0.00 46 1008.3
20210920211524 98 186 7.0 9.0 0.00 0.00 0.00 45 1008.2
20210920211024 98 231 5.0 10.0 0.00 0.00 0.00 44 1008.4
20210920210524 98 138 4.0 15.0 0.00 0.00 0.00 45 1008.5
20210920210024 98 165 6.0 11.0 0.00 0.00 0.00 43 1008.5
20210920205524 99 142 7.0 12.0 0.00 0.00 0.00 43 1008.5
20210920205024 98 178 5.0 9.0 0.00 0.00 0.00 43 1008.5
20210920204527 98 206 2.0 14.0 0.00 0.00 0.00 44 1008.6
20210920204027 98 161 6.0 12.0 0.00 0.00 0.00 45 1008.6
20210920203524 98 203 5.0 13.0 0.00 0.00 0.00 47 1008.6
20210920203024 97 146 5.0 12.0 0.00 0.00 0.00 45 1008.7
20210920202524 98 175 4.0 12.0 0.00 0.00 0.00 45 1008.8
20210920202024 98 167 5.0 12.0 0.00 0.00 0.00 46 1008.8
20210920201524 98 167 5.0 14.0 0.00 0.00 0.00 45 1008.7
20210920201024 98 169 2.0 11.0 0.00 0.00 0.00 45 1008.8
20210920200524 98 207 4.0 10.0 0.00 0.00 0.00 46 1008.8
20210920200024 98 178 3.0 11.0 0.00 0.00 0.00 45 1008.8
20210920195524 98 171 6.0 12.0 0.00 0.00 0.00 46 1008.8
20210920195024 97 181 6.0 11.0 0.00 0.00 0.00 48 1008.9
20210920194527 97 205 4.0 12.0 0.00 0.00 0.00 49 1009.0
20210920194024 97 209 6.0 12.0 0.00 0.00 0.00 50 1008.9
20210920193524 96 135 3.0 14.0 0.00 0.00 0.00 47 1009.1
20210920193024 96 147 9.0 13.0 0.00 0.00 0.00 48 1009.2
20210920192527 96 119 6.0 14.0 0.00 0.00 0.00 48 1009.2
20210920192024 96 186 12.0 16.0 0.00 0.00 0.00 48 1009.3
20210920191524 96 155 9.0 15.0 0.00 0.00 0.00 48 1009.4
20210920191027 96 169 4.0 12.0 0.00 0.00 0.00 48 1009.5
20210920190527 97 184 5.0 11.0 0.00 0.00 0.00 48 1009.7
20210920190024 96 159 9.0 12.0 0.00 0.00 0.00 50 1009.7
20210920185524 96 215 4.0 11.0 0.00 0.00 0.00 51 1009.9
20210920185024 96 136 5.0 14.0 0.00 0.00 0.00 49 1009.9
20210920184527 96 209 5.0 11.0 0.00 0.00 0.00 51 1009.9
20210920184024 95 198 6.0 13.0 0.00 0.00 0.00 50 1010.0
20210920183524 95 171 6.0 13.0 0.00 0.00 0.00 50 1010.0
20210920183024 95 192 15.0 15.0 0.00 0.00 0.00 51 1010.0
20210920182527 95 221 3.0 10.0 0.00 0.00 0.00 52 1010.1
20210920182024 95 198 6.0 12.0 0.00 0.00 0.00 52 1010.2
20210920181524 95 169 3.0 10.0 0.00 0.00 0.00 53 1010.3
20210920181024 94 181 4.0 11.0 0.00 0.00 0.00 53 1010.4
20210920180524 94 194 5.0 13.0 0.00 0.00 0.00 53 1010.4
20210920180027 94 126 10.0 13.0 0.00 0.00 0.00 54 1010.5
20210920175524 94 208 4.0 13.0 0.00 0.00 0.00 53 1010.5